Probability
0 0 0 0 0 0 0 0 0 0 0 0 0 0 0 0 0 0 0 0 0 0 0 0 0 0 0 0 0 0 0 0 0 0 0 0 0 0
0 0 0 0 0 0 0 0 0 0 0 0 0 0 0 0 0 0 0 0 0 0 0 0 0 0 0 0 0 0 0 0 0 0 0 0 0 0
0 0 0 0 0 0 0 0 0 0 0 0 0 0 0 0 0 0 0 0 0 0 0 0 0 0 0 0 0 0 0 0 0 0 0 0 0 0
0 0 0 0 0 0 0 0 0 0 0 0 0 0 0 0 0 0 0 0 0 0 0 0 0 0 0 0 0 0 0 0 0 0 0 0 0 0
0 0 0 0 0 0 0 0 0 0 0 0 0 0 0 0 0 0 0 0 0 0 0 0 0 0 0 0 0 0 0 0 0 0 0 0 0 0
0 0 0 0 0 0 0 0 0 0 0 0 0 0 0 0 0 0 0 0 0 0 0 0 0 0 0 0 0 0 0 0 0 0 0 0 0 0
0 0 0 0 0 0 0 0 0 0 0 0 0 0 0 0 0 0 0 0 0 0 0 0 0 0 0 0 0 0 0 0 0 0 0 0 0 0
0 0 0 0 0 0 0 0 0 0 0 0 0 0 0 0 0 0 0 0 0 0 0 0 0 0 0 0 0 0 0 0 0 0 0 0 0 0
0 0 0 0 0 0 0 0 0 0 0 0 0 0 0 0 0 0 0 0 0 0 0 0 0 0 0 0 0 0 0 0 0 0 0 0 0 0
0 0 0 0 0 0 0 0 0 0 0 0 0 0 0 0 0 0 0 0 0 0 0 0 0 0 0 0 0 0 0 0 0 0 0 0 0 0
0 0 0 0 0 0 0 0 0 0 0 0 0 0 0 0 0 0 0 0 0 0 0 0 0 0 0 0 0 0 0 0 0 0 0 0 0 0
0 0 0 0 0 0 0 0 0 0 0 0 0 0 0 0 0 0 0 0 0 0 0 0 0 0 0 0 0 0 0 0 0 0 0 0 0 0
0 0 0 0 0 0 0 0 0 0 0 0 0 0 0 0 0 0 0 0 0 0 0 0 0 0 0 0 0 0 0 0 0 0 0 0 0 0
0 0 0 0 0 0 0 0 0 0 0 0 0 0 0 0 0 0 0 0 0 0 0 0 0 0 0 0 0 0 0 0 0 0 0 0 0 0
0 0 0 0 0 0 0 0 0 0 0 0 0 0 0 0 0 0 0 0 0 0 0 0 0 0 0 0 0 0 0 0 0 0 0 0 0 0
0 0 0 0 0 0 0 0 0 0 0 0 0 0 0 0 0 0 0 0 0 0 0 0 0 0 0 0 0 0 0 0 0 0 0 0 0 0
0 0 0 0 0 0 0 0 0 0 0 0 0 0 0 0 0 0 0 0 0 0 0 0 0 0 0 0 0 0 0 0 0 0 0 0 0 0
0 0 0 0 0 0 0 0 0 0 0 0 0 0 0 0 0 0 0 0 0 0 0 0 0 0 0 0 0 0 0 0 0 0 0 0 0 0
0 0 0 0 0 0 0 0 0 0 0 0 0 0 0 0 0 0 0 0 0 0 0 0 0 0 0 0 0 0 0 0 0 0 0 0 0 0
0 0 0 0 0 0 0 0 0 0 0 0 0 0 0 0 0 0 0 0 0 0 0 0 0 0 0 0 0 0 0 0 0 0 0 0 0 0
0 0 0 0 0 0 0 0 0 0 0 0 0 0 0 0 0 0 0 0 0 0 0 0 0 0 0 0 0 0 0 0 0 0 0 0 0 0
0 0 0 0 0 0 0 0 0 0 0 0 0 0 0 0 0 0 0 0 0 0 0 0 0 0 0 0 0 0 0 0 0 0 0 0 0 0
0 0 0 0 0 0 0 0 0 0 0 0 0 0 0 0 0 0 0 0 0 0 0 0 0 0 0 0 0 0 0 0 0 0 0 0 0 0
Height
5705 5703 5700 5697 5693 5690 5686 5683 5680 5676 5673 5668 5663 5658 5653 5649 5645 5640 5636 5631 5627 5622 5618 5613 5609 5605 5600 5596 5592 5588 5584 5580 5577 5573 5570 5567 5564 5561
5697 5694 5691 5688 5684 5680 5677 5673 5669 5666 5662 5658 5652 5647 5642 5637 5633 5628 5623 5619 5614 5609 5603 5598 5594 5589 5584 5579 5575 5570 5566 5561 5557 5553 5549 5545 5542 5539
5689 5686 5682 5679 5675 5671 5667 5663 5659 5655 5651 5647 5641 5636 5631 5626 5620 5615 5610 5605 5599 5593 5588 5582 5576 5571 5566 5560 5555 5550 5545 5540 5535 5531 5526 5522 5518 5514
5680 5677 5673 5670 5666 5662 5657 5653 5648 5644 5639 5635 5630 5624 5618 5613 5607 5602 5596 5590 5583 5577 5571 5564 5558 5552 5546 5540 5534 5529 5523 5518 5512 5507 5502 5497 5492 5488
5671 5668 5664 5660 5656 5652 5647 5642 5637 5632 5627 5622 5617 5611 5606 5599 5593 5587 5581 5574 5567 5559 5553 5546 5539 5532 5525 5518 5512 5506 5500 5494 5489 5482 5476 5471 5466 5462
5662 5658 5654 5650 5646 5642 5637 5631 5626 5621 5615 5610 5604 5598 5591 5584 5578 5571 5565 5558 5550 5542 5535 5527 5519 5512 5504 5497 5490 5484 5477 5471 5465 5459 5453 5448 5443 5438
5652 5648 5644 5640 5636 5631 5626 5620 5614 5609 5602 5596 5590 5584 5577 5569 5562 5554 5548 5541 5534 5525 5517 5509 5499 5492 5483 5475 5468 5461 5455 5449 5443 5437 5432 5426 5422 5417
5643 5638 5634 5630 5625 5619 5614 5608 5602 5596 5589 5583 5576 5569 5561 5553 5545 5537 5530 5523 5517 5509 5499 5491 5480 5472 5463 5455 5448 5441 5435 5429 5423 5418 5413 5407 5403 5398
5633 5628 5624 5619 5613 5608 5602 5596 5589 5582 5575 5568 5561 5553 5545 5536 5528 5521 5512 5503 5496 5487 5478 5473 5462 5453 5444 5436 5429 5422 5417 5411 5406 5401 5396 5391 5386 5382
5622 5618 5613 5608 5602 5597 5591 5584 5576 5569 5561 5554 5546 5537 5527 5518 5509 5501 5493 5485 5478 5467 5457 5451 5444 5435 5427 5418 5410 5405 5400 5395 5390 5385 5380 5376 5372 5368
5612 5607 5602 5597 5591 5585 5579 5572 5564 5555 5546 5538 5529 5520 5510 5501 5491 5482 5474 5465 5459 5450 5439 5432 5426 5419 5413 5404 5395 5389 5385 5381 5376 5372 5367 5363 5360 5357
5601 5596 5591 5585 5578 5571 5564 5557 5550 5541 5533 5523 5514 5504 5494 5484 5474 5464 5455 5446 5438 5432 5424 5416 5410 5403 5400 5393 5384 5377 5372 5368 5364 5361 5357 5353 5350 5348
5590 5585 5579 5572 5566 5558 5551 5543 5534 5526 5517 5508 5498 5488 5478 5468 5457 5447 5438 5430 5422 5415 5408 5402 5396 5389 5383 5380 5374 5367 5362 5359 5355 5351 5348 5345 5342 5340
5579 5573 5567 5560 5553 5545 5537 5528 5519 5510 5500 5491 5482 5472 5462 5452 5442 5433 5424 5416 5408 5401 5394 5388 5383 5377 5371 5367 5363 5358 5353 5350 5347 5344 5341 5338 5336 5334
5568 5561 5554 5547 5539 5531 5522 5513 5504 5494 5485 5475 5466 5456 5446 5437 5428 5420 5411 5403 5396 5388 5381 5376 5371 5366 5361 5356 5353 5349 5346 5343 5340 5337 5335 5333 5331 5329
5556 5549 5542 5534 5526 5517 5508 5499 5489 5479 5469 5460 5451 5442 5432 5424 5415 5407 5399 5391 5384 5377 5370 5365 5360 5356 5352 5348 5344 5341 5338 5336 5334 5332 5330 5328 5326 5324
5543 5536 5529 5521 5512 5503 5493 5484 5474 5464 5455 5445 5436 5428 5419 5411 5403 5395 5387 5380 5374 5368 5362 5357 5352 5348 5344 5341 5338 5335 5332 5331 5329 5327 5325 5324 5322 5321
5531 5524 5516 5507 5498 5489 5479 5469 5459 5450 5441 5432 5423 5415 5407 5399 5391 5384 5377 5370 5364 5359 5354 5349 5345 5342 5339 5335 5333 5330 5328 5327 5325 5323 5322 5320 5319 5318
5518 5510 5502 5493 5484 5474 5465 5455 5446 5437 5428 5419 5411 5403 5396 5389 5381 5375 5368 5362 5356 5351 5346 5343 5339 5336 5333 5331 5328 5326 5325 5324 5322 5321 5319 5318 5317 5317
5505 5497 5488 5479 5469 5460 5450 5441 5432 5423 5415 5407 5400 5393 5385 5379 5372 5365 5359 5354 5349 5344 5340 5337 5334 5331 5329 5327 5325 5324 5322 5321 5320 5319 5317 5316 5316 5315
5492 5483 5474 5465 5455 5446 5436 5427 5419 5411 5403 5396 5389 5382 5376 5369 5363 5356 5351 5346 5342 5338 5335 5332 5329 5327 5325 5324 5323 5322 5321 5319 5318 5317 5316 5315 5315 5314
5479 5470 5461 5451 5442 5433 5424 5415 5407 5399 5392 5386 5379 5373 5366 5360 5354 5349 5344 5340 5336 5333 5330 5327 5325 5324 5323 5322 5321 5320 5319 5318 5317 5316 5315 5314 5314 5314
5466 5456 5447 5438 5429 5421 5412 5404 5396 5389 5383 5376 5370 5364 5358 5353 5348 5343 5338 5334 5331 5328 5326 5324 5323 5322 5321 5320 5320 5319 5318 5317 5316 5315 5315 5314 5314 5314
Wind_Speed
40 41 41 42 43 44 44 44 44 45 45 45 46 46 47 47 48 48 49 49 50 51 52 53 54 54 55 56 57 58 59 61 62 63 63 64 65 66
41 41 42 42 43 44 44 45 46 47 47 46 47 48 49 49 50 50 51 52 53 54 55 56 57 58 59 60 62 63 64 66 66 67 68 69 70 71
40 41 42 43 44 45 46 47 48 48 48 48 49 50 51 52 52 53 54 55 56 57 59 60 61 63 64 65 66 68 69 69 70 71 73 74 75 76
41 41 42 44 45 46 47 48 49 50 50 50 51 52 53 54 55 56 57 58 60 61 63 64 65 66 68 69 70 71 72 73 74 75 76 76 77 76
41 42 43 44 45 47 48 49 51 51 52 52 53 54 56 57 58 59 61 62 63 64 65 66 68 69 71 72 73 73 73 74 74 74 74 73 72 72
41 43 44 45 46 48 49 50 51 52 53 54 56 57 58 60 62 63 63 64 64 66 67 69 70 72 73 73 73 73 73 72 71 70 69 68 67 66
42 44 45 46 47 49 50 51 53 54 55 57 58 60 62 63 64 65 65 65 66 68 69 71 72 73 73 73 72 71 70 69 67 65 64 63 61 60
43 44 46 47 48 50 51 53 54 56 58 59 61 63 64 65 66 67 68 69 69 70 71 71 72 72 71 70 69 67 66 64 61 59 57 56 55 54
43 45 47 48 49 51 52 54 56 58 60 62 63 65 66 67 69 69 70 71 71 72 73 71 71 69 67 66 64 62 60 58 55 54 52 52 51 49
45 46 47 49 50 52 54 56 58 60 62 64 66 68 69 70 71 72 72 72 72 73 72 70 66 64 62 61 60 57 55 52 50 48 47 46 43 40
45 47 48 50 52 54 56 58 60 62 64 66 68 69 70 72 72 73 73 73 71 69 67 64 60 58 56 55 54 52 49 47 44 43 41 38 36 34
46 47 49 51 53 56 58 59 61 63 66 68 69 70 71 72 72 72 72 70 67 63 60 58 56 54 51 49 49 47 45 42 40 37 35 33 31 29
46 48 50 52 55 57 59 61 63 65 67 69 70 71 71 71 70 69 67 65 62 58 57 55 53 51 48 45 43 42 40 37 35 32 31 29 27 24
47 49 51 53 56 58 60 62 64 66 68 68 69 69 68 67 65 64 62 60 58 56 54 52 49 46 44 41 38 36 35 33 30 28 26 24 22 21
48 51 53 54 57 59 61 63 65 67 67 67 66 66 64 62 61 60 59 57 55 53 50 47 45 42 39 36 33 32 30 28 26 24 22 21 20 18
50 52 53 56 58 60 62 64 66 66 65 65 64 62 60 59 58 57 55 53 50 48 45 42 40 37 34 32 30 28 25 23 22 21 19 18 17 15
51 53 55 57 59 61 63 65 65 64 64 63 61 59 58 56 54 52 50 48 45 42 40 38 35 32 30 28 26 23 21 19 18 17 16 15 13 11
52 54 56 58 60 62 63 63 63 62 61 60 58 56 54 51 49 48 46 44 41 39 36 33 31 29 27 24 22 19 17 16 15 14 13 11 10 9
53 55 58 60 61 62 62 62 61 60 59 57 54 52 50 48 47 45 43 41 38 35 32 29 27 25 23 20 17 15 13 12 12 11 10 9 8 7
55 57 59 60 61 61 61 61 59 57 55 52 50 48 47 46 45 43 40 37 34 31 29 26 24 22 18 16 14 12 11 11 10 10 9 8 7 6
56 58 59 60 60 60 60 58 56 53 51 49 47 46 45 44 41 38 35 33 31 28 25 23 20 17 14 12 11 10 10 10 9 8 7 6 5 4
57 58 59 59 58 57 56 55 52 49 47 45 44 43 41 39 36 34 32 30 27 25 22 19 16 13 11 9 8 9 9 9 8 6 5 4 3 3
58 58 58 57 56 55 53 51 48 45 43 42 40 39 37 35 33 30 28 26 23 20 17 14 12 10 8 7 7 7 7 7 6 4 3 3 3 3
Wind_Direction
292 294 295 296 297 298 299 300 301 301 302 303 303 303 303 303 302 302 301 300 299 299 298 297 296 296 295 294 293 292 291 290 289 287 286 285 283 282
291 293 295 296 297 298 299 300 301 302 303 303 303 303 303 303 302 302 301 300 300 299 298 297 297 296 295 294 293 292 291 290 289 288 286 285 284 282
291 294 295 296 297 298 299 300 301 302 303 303 303 303 303 303 303 302 301 301 300 299 299 298 297 296 295 295 294 293 292 291 289 288 287 285 284 282
293 294 295 296 297 298 299 301 302 302 303 303 303 303 303 303 303 302 302 301 300 300 299 298 298 297 297 296 295 294 293 292 291 290 288 287 285 284
294 294 295 296 297 298 299 301 302 302 303 303 303 303 303 303 303 302 302 301 301 300 300 299 299 299 298 297 296 295 294 293 292 291 290 289 287 286
295 295 296 297 297 299 300 301 302 302 303 303 304 304 304 303 303 303 302 302 301 301 301 300 300 300 299 298 297 296 296 295 294 293 292 290 289 287
295 296 296 297 298 300 301 301 302 302 303 303 304 304 304 304 303 303 303 302 302 302 302 302 301 301 300 299 298 298 297 296 295 294 292 291 290 288
295 296 297 298 299 300 301 302 302 302 303 303 304 304 304 304 304 304 304 303 303 302 302 302 302 301 300 299 299 298 298 297 296 295 293 292 291 290
296 297 298 299 299 300 301 302 302 303 303 304 305 305 305 305 304 304 304 304 304 303 303 303 302 302 301 300 300 299 299 298 297 296 295 294 293 292
296 297 298 299 300 301 302 302 303 304 304 305 306 306 306 305 305 305 305 305 305 304 304 304 303 302 302 301 301 300 300 300 298 298 297 296 295 293
297 298 299 300 301 301 302 303 304 304 305 305 306 306 306 306 306 306 306 306 306 306 305 304 304 304 303 303 302 302 302 302 301 300 299 297 295 294
298 299 300 301 302 302 303 304 305 305 305 306 306 306 306 306 306 307 307 307 308 307 306 305 305 305 304 303 302 302 303 303 303 302 301 298 297 295
299 300 301 302 303 304 305 305 306 306 306 306 307 306 307 307 307 307 308 308 309 308 307 307 306 306 306 305 303 302 302 303 303 303 301 300 298 296
301 302 303 304 304 305 306 306 307 307 308 308 308 307 308 308 308 308 309 309 309 308 308 307 307 307 306 305 304 302 302 303 303 303 302 301 299 298
302 303 304 305 306 307 307 308 308 309 309 309 309 309 309 309 309 309 309 309 309 309 308 308 308 308 308 306 305 303 302 302 303 303 302 301 301 300
304 305 305 306 308 308 309 309 309 310 310 310 311 310 310 310 310 310 310 310 310 310 309 310 310 310 309 308 307 305 303 302 303 303 303 303 302 301
306 306 307 308 309 309 309 310 310 311 311 311 311 311 311 311 311 311 312 312 311 310 310 311 311 311 310 310 309 307 305 304 304 304 304 304 303 301
307 307 308 309 310 310 310 311 311 311 312 312 312 312 312 313 313 313 313 313 312 312 311 311 311 310 310 310 309 308 306 307 307 307 307 305 305 305
309 309 310 311 311 311 312 312 312 312 312 312 313 312 313 313 313 313 314 314 313 313 312 312 311 311 311 311 311 309 309 311 312 311 309 307 306 309
310 311 312 312 312 313 313 313 312 312 312 313 313 313 313 314 314 314 314 314 314 314 313 313 312 311 311 311 311 311 314 317 317 315 312 311 311 313
312 313 313 313 313 314 314 314 314 313 313 313 313 314 314 315 315 315 314 314 314 314 313 313 313 312 311 311 310 312 317 320 321 319 319 319 318 318
313 314 314 314 314 315 315 316 315 315 314 314 314 315 316 317 318 316 315 315 315 315 313 313 313 312 312 312 312 315 319 322 324 323 324 329 333 338
315 315 315 315 315 316 316 316 316 316 316 316 317 317 318 319 319 318 317 316 316 315 314 313 312 311 311 313 315 319 323 327 329 330 338 352 7 17